Вернуться в каталог

COSMOS 2251 DEB

АктивенLEO
NORAD 37118·DEBRIS·🇷🇺 Russia

Запущен Jun 16, 1993 с Plesetsk Cosmodrome

Loading…

Ближайшие Пролёты (ближайшие 24 часа)

TLE

СвежийSource: Space-Track

Эпоха: Sep 13, 2026, 08:54 UTC

1 37118U 93036BGQ 26256.37151057  .00007387  00000-0  86732-3 0  9995
2 37118  74.0105 259.8921 0008684 277.1985  82.8206 14.85062514696205

Отслеживайте COSMOS 2251 DEB в реальном времени с AllMySat

Download on the App Store